Weather History for PATK - November, 2013

Change the Weather History Date:

Monday, November 18, 2013

  Actual Average Record
Temperature  
Mean Temperature -4 °F -  
Max Temperature 7 °F 23 °F 46 °F (2014)
Min Temperature -14 °F 9 °F -27 °F (1974)
Degree Days  
Heating Degree Days 68    
Moisture  
Dew Point -12 °F    
Average Humidity 76    
Maximum Humidity 83    
Minimum Humidity 56    
Precipitation  
Precipitation 0.00 in - - ()
Sea Level Pressure  
Sea Level Pressure 30.22 in    
Wind  
Wind Speed 1 mph (NE)    
Max Wind Speed 5 mph    
Max Gust Speed -    
Visibility 10 miles    
Events      
Averages and records for this station are not official NWS values.
T = Trace of Precipitation, MM = Missing Value Source: NWS Daily Summary

Daily Weather History Graph

Daily Weather History Graph

Search for Another Location

Airport or City:

Trip Planner

Search our weather history database for the weather conditions in past years. The results will help you decide how hot, cold, wet, or windy it might be!

Date:

Astronomy

Nov. 18, 2013 Rise Set
Actual Time 9:24 AM AKST 4:06 PM AKST
Civil Twilight 8:27 AM AKST 5:02 PM AKST
Nautical Twilight 7:30 AM AKST 5:59 PM AKST
Astronomical Twilight 6:37 AM AKST 6:52 PM AKST
Moon 5:09 PM AKST (11/18) 10:27 AM AKST (11/18)
Length of Visible Light 8h 34m
Length of Day
6h 42m
Full, 98% of the Moon is Illuminated
Nov 18
Full
Nov 25
Last Quarter
Dec 2
New
Dec 9
First Quarter
Dec 17
Full

Hourly Weather History & Observations

Time (AKST) Temp. Windchill Dew Point Humidity Pressure Visibility Wind Dir Wind Speed Gust Speed Precip Events Conditions
12:53 AM -6.0 °F - -9.9 °F 83% 30.25 in 10.0 mi Calm Calm - N/A   Clear
1:53 AM -7.1 °F -18.1 °F -11.9 °F 79% 30.25 in 10.0 mi NNE 4.6 mph - N/A   Clear
3:53 AM -9.9 °F -21.5 °F -15.0 °F 78% 30.23 in 10.0 mi NE 4.6 mph - N/A   Clear
4:53 AM -9.0 °F -18.2 °F -14.1 °F 79% 30.23 in 10.0 mi ENE 3.5 mph - N/A   Clear
5:53 AM -9.9 °F -19.2 °F -15.0 °F 78% 30.22 in 10.0 mi NE 3.5 mph - N/A   Clear
6:53 AM -11.9 °F - -17.0 °F 78% 30.22 in 10.0 mi Calm Calm - N/A   Clear
7:53 AM -14.1 °F -23.9 °F -18.9 °F 79% 30.23 in 10.0 mi ENE 3.5 mph - N/A   Clear
8:53 AM -13.0 °F -22.7 °F -18.0 °F 78% 30.23 in 10.0 mi East 3.5 mph - N/A   Scattered Clouds
9:53 AM -11.0 °F - -17.0 °F 75% 30.24 in 10.0 mi Calm Calm - N/A   Clear
10:53 AM -11.0 °F - -16.1 °F 78% 30.24 in 10.0 mi Calm Calm - N/A   Clear
11:53 AM -2.9 °F - -9.0 °F 75% 30.23 in 10.0 mi Calm Calm - N/A   Clear
12:53 PM 1.0 °F - -6.0 °F 72% 30.22 in 10.0 mi Calm Calm - N/A   Clear
1:53 PM 3.0 °F - -5.1 °F 69% 30.21 in 10.0 mi Calm Calm - N/A   Clear
2:53 PM 3.0 °F - -5.1 °F 69% 30.21 in 10.0 mi Calm Calm - N/A   Clear
3:53 PM 1.0 °F - -6.0 °F 72% 30.20 in 10.0 mi Calm Calm - N/A   Clear
4:53 PM -5.1 °F - -9.0 °F 83% 30.20 in 10.0 mi Calm Calm - N/A   Clear
5:53 PM -6.0 °F -14.7 °F -11.0 °F 79% 30.20 in 10.0 mi NNE 3.5 mph - N/A   Clear
6:53 PM -8.0 °F - -11.9 °F 83% 30.21 in 10.0 mi Calm Calm - N/A   Overcast
7:53 PM -8.0 °F - -13.0 °F 79% 30.21 in 10.0 mi Calm Calm - N/A   Mostly Cloudy
8:53 PM -7.1 °F - -11.9 °F 79% 30.21 in 10.0 mi Calm Calm - N/A   Overcast
9:53 PM -6.0 °F - -11.0 °F 79% 30.20 in 10.0 mi Calm Calm - N/A   Overcast
10:53 PM -7.1 °F - -11.0 °F 83% 30.20 in 10.0 mi Calm Calm - N/A   Overcast
11:53 PM -5.1 °F - -11.0 °F 76% 30.20 in 10.0 mi Calm Calm - N/A   Overcast